LexMAWeather

Lexington, Massachusetts, USA

49°F
3/20/2019 5:32pm 
  • Lexington Conditions: Partly cloudy
  • Temperature: 48.7°F / 9.3°CColder 0.9°F than last hour.
  • Dew Point: 31.5°FIncreased 4.5°Fsince last hour.
  • Relative Humidity: 51%Increased 10.0% since last hour.
  • Wind: SW 3 mph, 10-min avg: 4 mph, gust: 18 mph
  • Barometer: 30.22 in Steady
  • Visibility: 10 miles
  • Rain Today: 0.00 in
  •   

Regional Weather Roundup
for Boston, MA

        
000
ASUS41 KBOX 202110
RWRBOX

REGIONAL WEATHER ROUNDUP
NATIONAL WEATHER SERVICE BOSTON/NORTON MA
500 PM EDT WED MAR 20 2019

NOTE:  "FAIR" INDICATES FEW OR NO CLOUDS BELOW 12,000 FEET WITH NO 
SIGNIFICANT WEATHER AND/OR OBSTRUCTIONS TO VISIBILITY.

MAZALL-202200-
EASTERN MASSACHUSETTS
  
CITY           SKY/WX    TMP DP  RH WIND       PRES   REMARKS
BOSTON         PTSUNNY   51  26  37 S14       30.27F                  
BEVERLY        FAIR      43  26  51 SE13      30.27F                  
LAWRENCE       FAIR      46  20  35 SE14G20   30.27F                  
BEDFORD        FAIR      51  21  30 SW13      30.24F                  
BLUE HILL        N/A     46  29  51 S16G26    30.25F                  
NORWOOD        FAIR      50  29  44 S16       30.28F                  
MARSHFIELD     FAIR      48  28  46 S13G20    30.30S                  
PLYMOUTH       FAIR      45  25  45 S10G17    30.32S                  
TAUNTON        FAIR      47  26  44 SW13G23   30.31S                  
NEW BEDFORD    FAIR      44  25  47 S18       30.33S                  
$$

MAZALL-202200-
CAPE COD AND THE ISLANDS
  
CITY           SKY/WX    TMP DP  RH WIND       PRES   REMARKS
FALMOUTH       FAIR      45  23  42 SW16G23   30.34S                  
HYANNIS        FAIR      43  30  60 S12       30.33F                  
CHATHAM        FAIR      42  27  55 VRB7      30.37S                  
PROVINCETOWN   FAIR      44  28  53 S17       30.33F                  
NANTUCKET      FAIR      42  29  59 S9        30.37S                  
MARTHAS VNYRD  FAIR      45  32  60 S16       30.36S                  
$$
 
MAZALL-202200-
CENTRAL AND WESTERN MASSACHUSETTS
  
CITY           SKY/WX    TMP DP  RH WIND       PRES   REMARKS
WORCESTER      FAIR      48  20  32 SW10      30.23F                  
FITCHBURG      FAIR      52  19  27 SW8       30.25F                  
ORANGE         FAIR      52  16  24 SW13G20   30.23F                  
SPRINGFIELD    MOSUNNY   53  16  23 SW12      30.22F                  
WESTFIELD      FAIR      52  16  24 S8G21     30.23F                  
NORTH ADAMS    FAIR      51  17  26 S9        30.20F                  
PITTSFIELD     FAIR      50  16  25 S7        30.18F                  
$$
 
RIZALL-202200-
RHODE ISLAND
  
CITY           SKY/WX    TMP DP  RH WIND       PRES   REMARKS
PROVIDENCE     FAIR      47  30  51 S15G25    30.31S                  
NEWPORT        FAIR      43  26  51 S13G20    30.33F                  
SMITHFIELD     PTSUNNY   48  29  47 SW10G17   30.27F                  
WESTERLY       FAIR      47  35  63 S10       30.34F                  
$$
 
CTZALL-202200-
CONNECTICUT
  
CITY           SKY/WX    TMP DP  RH WIND       PRES   REMARKS
BRADLEY INTL   FAIR      52  22  30 S20       30.25F                  
HARTFORD       FAIR      50  21  32 S17G26    30.27F                  
BRIDGEPORT     FAIR      49  23  36 S15       30.31F                  
DANBURY        FAIR      49  17  28 S16G22    30.27F                  
GROTON         FAIR      45  35  68 S14       30.33F                  
NEW HAVEN      FAIR      49  27  42 SW13G18   30.31F                  
CHESTER        FAIR      48  16  27 SW10G20   30.30F                  
MERIDEN        FAIR      49  19  30 S15G24    30.28F                  
WILLIMANTIC    FAIR      49  21  33 S12G20    30.28F                  
OXFORD         FAIR      47  20  34 S13G23    30.27F                  
$$

MEZ002-015-021-024-NHZ003-005-008-011-012-014-VTZ005-008-202200-
NORTHERN NEW ENGLAND
  
CITY           SKY/WX    TMP DP  RH WIND       PRES   REMARKS
PORTLAND ME    FAIR      41  24  51 S12G21    30.28F                  
BANGOR ME      FAIR      39  22  50 S13       30.27S WCI  31          
CONCORD NH     FAIR      49  20  31 S10       30.23F                  
MANCHESTER NH  FAIR      52  14  22 VRB3      30.23F                  
NASHUA NH      FAIR      51  18  27 SW7       30.25S                  
PORTSMOUTH NH  MOSUNNY   43  21  40 SE17      30.27                   
JAFFREY NH     FAIR      48  20  32 S10       30.22F                  
KEENE NH       FAIR      50  21  32 S12       30.22F                  
BURLINGTON VT  FAIR      50  18  28 S12G20    30.17F                  
MT. WASHINGTON MOSUNNY   18  10  73 W18G28      N/A  WCI   2          
$$

NYZ052-076-202200-
EASTERN NEW YORK
  
CITY           SKY/WX    TMP DP  RH WIND       PRES   REMARKS
ALBANY         FAIR      55  17  22 S13       30.20F                  
NEW YORK CITY  PTSUNNY   49  17  28 S20G30    30.30F                  
$$
 
ANZALL-202200-
MARINE OBSERVATIONS
  
STATION/POSITION TIME  TEMP    WIND        PRES    VSBY  WAVE
                       AIR SEA DIR/SP/G                  HT/PER
                 (UTC) (F)     (DEG/KT/KT) (MB)    (MI)  (FT/S)
BOSTON BUOY      2050   42 39  140/ 17/ 19 1025.3F         2/ 3
BUZZARDS BAY     2000          200/ 14/ 16 1029.1F
NANTUCKET SOUND  2050   39 38  190/ 12/ 14 1028.2F         1
MASS BAY-STELLWA 2004   39 38  140/ 14/ 17 1025.5F  1 7/8  2/ 3
ISLE OF SHOALS   2100   39     140/ 19/ 20 1025.0F
S OF BLOCK IS    2030      42                N/A           1/ 3
$$

......................KEY.........................
  SKY/WX - SKY CONDITION/PRESENT WEATHER
  TMP    - TEMPERATURE IN FAHRENHEIT
  DWPT   - DEWPOINT IN FAHRENHEIT
  RH     - RELATIVE HUMIDITY IN PERCENT
  WIND   - DIRECTION AND SPEED IN MPH
  PRES   - MEAN SEA LEVEL PRESSURE IN INCHES OF HG
  WCI    - WIND CHILL INDEX
  VSB    - VISIBILITY IN MILES
  HX     - HEAT INDEX
  TC     - TEMPERATURE IN CELSIUS
  VRB    - VARIABLE WIND DIRECTION
  N/A    - NOT AVAILABLE